Tracking 19177 objects as of 24-May-2018
HD Live streaming from Space Station
objects crossing your sky now

GREB

Track GREB now!
10-day predictions
GREB is classified as:


NORAD ID: 731
Int'l Code: 1964-001E
Perigee: 904.1 km
Apogee: 926.8 km
Inclination: 69.9 °
Period: 103.2 minutes
Semi major axis: 7286 km
RCS: 0.526 m2 (medium)
Launch date: January 11, 1964
Source: United States (US)
Launch site: AIR FORCE WESTERN TEST RANGE (AFWTR)
aabbcc
Your satellite tracking list
Your tracking list is empty




NASA's NSSDC Master Catalog

Two Line Element Set (TLE):
1 00731U 64001E   18144.22882362 -.00000022  00000-0  23071-4 0  9995
2 00731  69.9049 113.0536 0015597 221.0743 231.8910 13.95816183766924
Source of the keplerian elements: AFSPC